FREGAT DEB, 46006

Orbit data source: Space-Track

FREGAT DEB, 46006 is space debris in LEO originally from a launch on Mon, 18 Jul 2011 UTC launched from the Tyuratam Missile And Space Complex (TTMTR). Debris objects in space refer to the collection of defunct objects orbiting the Earth. Examples of debris include non-operational satellites, rocket bodies, and fragments generated from explosions, collisions, or faulty payload assembly.

Loading next visibility...
Identifier
46006, 2011-037HH
Orbit
LEO
Country
Flag of CISCIS
Related business
Manufacturer
Lavochkin
Mission
Spacecraft
Bus & Motor
Unknown
Mass
Unknown
Launch date (UTC)
2011-07-18 (14 years ago)
Launch vehicle
Unknown
Launch site
Tyuratam Missile And Space Complex (TTMTR)
Object type
Payload
Rocket body
Debris
Shape & HBR
Unknown shape, 0.1 m
Radar Cross Section
Small (<0.1 m²)

Expand to show TLE details & history
Last TLE update: 22 hours ago

TLE from 22 hours ago
0 FREGAT DEB
1 46006U 11037HH  25290.86810262  .00050341  00000-0  29555-2 0  9990
2 46006  51.4145  95.1648 1639283 114.1636 263.9041 12.07928801221407
Epoch: 2025-10-17T20:50Z
TLE epoch observation values (Epoch: 2025-10-17T20:50:04.066Z)
Latitude
-0°
Longitude
116.04056°
Altitude
1,990.256 km
Speed
6.754 km/s
True Right ascension
06h 20m 39s
True Declination
0° 00' 00"
Sunlit
Object was in daylight at epoch
Visualization orbit readout
Latitude
Unknown
Longitude
Unknown
Altitude
Unknown
Speed
Unknown
Apparent Right ascension
Unknown
Apparent Declination
Unknown
Sunlit
N/A
Visualization observer readout
Local Sidereal Time
13:21:29
Azimuth
Unknown
Elevation
Unknown
Doppler factor
Unknown
Orbital elements
Apogee altitude
2,961.427 km
Perigee altitude
330.648 km
Semi-major axis
8,024.175 km
Eccentricity
0.16393
Inclination
51.4145°
RAAN
95.1648°
Arg. of periapsis
114.1636°
True anomaly
245.92227°
Mean anomaly
263.9041°
Eccentric anomaly
254.83862°
Mean motion
3.01955 °/min
Orbital period
119.22 mins
BSTAR
0.0029555
Loading maneuver chart data...
Computing Atmospheric mass density...
Loading historical data...
Loading historical data...
Loading historical data...
Loading historical data...
Loading historical data...
Loading historical data...
Loading historical data...

Documentation

Showing up to 5 results
|